When you browse on this site, cookies collect data to enhance your experience and personalize the content and advertising you see.
Visit our Privacy Policy to learn more. By continuing to use the site, you agree to this use of cookies and data.
  • In Portugal
  • List of Countries
  • For 7 days
  • Water Temperature
  • Satellite Maps
  • Weather Map
  • Weather Widgets
  • user-avatar
    Login

    Hourly Weather Namibe

    Today, 24 May, Friday

    Time Temperature Precipitation Wind Pressure Humidity
    00:00 +26°C° 0 mm 3 mps 759 mmHg 54%
    01:00 +26°C° 0 mm 2 mps 759 mmHg 55%
    02:00 +25°C° 0 mm 3 mps 759 mmHg 55%
    03:00 +25°C° 0 mm 3 mps 758 mmHg 56%
    04:00 +25°C° 0 mm 3 mps 758 mmHg 56%
    05:00 +25°C° 0 mm 2 mps 758 mmHg 55%
    06:00 +25°C° 0 mm 2 mps 758 mmHg 55%
    07:00 +26°C° 0 mm 2 mps 759 mmHg 54%
    08:00 +27°C° 0 mm 2 mps 759 mmHg 49%
    09:00 +29°C° 0 mm 2 mps 759 mmHg 44%
    10:00 +30°C° 0 mm 2 mps 759 mmHg 40%
    11:00 +31°C° 0 mm 3 mps 758 mmHg 38%
    12:00 +33°C° 0 mm 4 mps 758 mmHg 37%
    13:00 +34°C° 0 mm 5 mps 757 mmHg 36%
    14:00 +33°C° 0 mm 5 mps 757 mmHg 38%
    15:00 +32°C° 0 mm 5 mps 756 mmHg 40%
    16:00 +30°C° 0 mm 5 mps 756 mmHg 43%
    17:00 +29°C° 0 mm 5 mps 756 mmHg 46%
    18:00 +28°C° 0 mm 4 mps 757 mmHg 48%
    19:00 +27°C° 0 mm 3 mps 757 mmHg 51%
    20:00 +27°C° 0 mm 3 mps 758 mmHg 51%
    21:00 +27°C° 0 mm 2 mps 758 mmHg 50%
    22:00 +27°C° 0 mm 1 mps 758 mmHg 49%
    23:00 +27°C° 0 mm 1 mps 758 mmHg 49%

    Tomorrow, 25 May, Saturday

    Time Temperature Precipitation Wind Pressure Humidity
    00:00 +27°C° 0 mm 2 mps 758 mmHg 49%
    01:00 +27°C° 0 mm 2 mps 758 mmHg 48%
    02:00 +27°C° 0 mm 2 mps 758 mmHg 48%
    03:00 +27°C° 0 mm 2 mps 758 mmHg 48%
    04:00 +27°C° 0 mm 3 mps 757 mmHg 48%
    05:00 +27°C° 0 mm 3 mps 757 mmHg 47%
    06:00 +27°C° 0 mm 2 mps 758 mmHg 46%
    07:00 +27°C° 0 mm 2 mps 758 mmHg 46%
    08:00 +30°C° 0 mm 2 mps 758 mmHg 39%
    09:00 +32°C° 0 mm 2 mps 758 mmHg 33%
    10:00 +36°C° 0 mm 2 mps 758 mmHg 27%
    11:00 +37°C° 0 mm 3 mps 757 mmHg 25%
    12:00 +38°C° 0 mm 4 mps 757 mmHg 24%
    13:00 +40°C° 0 mm 5 mps 756 mmHg 22%
    14:00 +37°C° 0 mm 5 mps 756 mmHg 26%
    15:00 +36°C° 0 mm 5 mps 755 mmHg 30%
    16:00 +34°C° 0 mm 5 mps 755 mmHg 34%
    17:00 +33°C° 0 mm 4 mps 755 mmHg 37%
    18:00 +32°C° 0 mm 4 mps 756 mmHg 40%
    19:00 +29°C° 0 mm 3 mps 756 mmHg 43%
    20:00 +29°C° 0 mm 3 mps 757 mmHg 42%
    21:00 +29°C° 0 mm 2 mps 757 mmHg 42%
    22:00 +29°C° 0 mm 2 mps 758 mmHg 42%
    23:00 +28°C° 0 mm 2 mps 758 mmHg 43%

    Day after tomorrow, 26 May, Sunday

    Time Temperature Precipitation Wind Pressure Humidity
    00:00 +28°C° 0 mm 2 mps 758 mmHg 43%
    01:00 +27°C° 0 mm 2 mps 758 mmHg 43%
    02:00 +27°C° 0 mm 2 mps 757 mmHg 44%
    03:00 +27°C° 0 mm 2 mps 757 mmHg 45%
    04:00 +27°C° 0 mm 3 mps 757 mmHg 45%
    05:00 +27°C° 0 mm 2 mps 757 mmHg 44%
    06:00 +27°C° 0 mm 2 mps 757 mmHg 42%
    07:00 +27°C° 0 mm 2 mps 757 mmHg 40%
    08:00 +29°C° 0 mm 2 mps 758 mmHg 34%
    09:00 +31°C° 0 mm 2 mps 758 mmHg 28%
    10:00 +35°C° 0 mm 2 mps 758 mmHg 22%
    11:00 +36°C° 0 mm 2 mps 757 mmHg 21%
    12:00 +37°C° 0 mm 3 mps 757 mmHg 19%
    13:00 +40°C° 0 mm 4 mps 756 mmHg 18%
    14:00 +38°C° 0 mm 4 mps 756 mmHg 20%
    15:00 +37°C° 0 mm 5 mps 755 mmHg 22%
    16:00 +36°C° 0 mm 5 mps 755 mmHg 23%
    17:00 +34°C° 0 mm 4 mps 755 mmHg 29%
    18:00 +31°C° 0 mm 3 mps 756 mmHg 35%
    19:00 +29°C° 0 mm 2 mps 756 mmHg 40%
    20:00 +29°C° 0 mm 2 mps 757 mmHg 41%
    21:00 +28°C° 0 mm 2 mps 757 mmHg 42%
    22:00 +28°C° 0 mm 1 mps 758 mmHg 43%
    23:00 +27°C° 0 mm 1 mps 757 mmHg 45%

    27 May, Monday

    Time Temperature Precipitation Wind Pressure Humidity
    00:00 +27°C° 0 mm 1 mps 757 mmHg 46%
    01:00 +26°C° 0 mm 1 mps 757 mmHg 48%
    02:00 +26°C° 0 mm 1 mps 757 mmHg 49%
    03:00 +26°C° 0 mm 1 mps 757 mmHg 49%
    04:00 +25°C° 0 mm 1 mps 756 mmHg 50%
    05:00 +25°C° 0 mm 1 mps 757 mmHg 49%
    06:00 +25°C° 0 mm 1 mps 757 mmHg 48%
    07:00 +23°C° 0 mm 0 mps 757 mmHg 47%
    08:00 +27°C° 0 mm 1 mps 757 mmHg 41%
    09:00 +29°C° 0 mm 1 mps 758 mmHg 35%
    10:00 +31°C° 0 mm 1 mps 758 mmHg 29%
    11:00 +32°C° 0 mm 2 mps 757 mmHg 28%
    12:00 +34°C° 0 mm 3 mps 756 mmHg 27%
    13:00 +35°C° 0 mm 3 mps 756 mmHg 27%
    14:00 +34°C° 0 mm 4 mps 755 mmHg 29%
    15:00 +33°C° 0 mm 4 mps 755 mmHg 32%
    16:00 +32°C° 0 mm 4 mps 754 mmHg 35%
    17:00 +30°C° 0 mm 3 mps 755 mmHg 40%
    18:00 +29°C° 0 mm 2 mps 756 mmHg 44%
    19:00 +27°C° 0 mm 1 mps 756 mmHg 49%
    20:00 +27°C° 0 mm 1 mps 757 mmHg 50%
    21:00 +27°C° 0 mm 1 mps 757 mmHg 50%
    22:00 +27°C° 0 mm 1 mps 757 mmHg 51%
    23:00 +27°C° 0 mm 1 mps 757 mmHg 50%

    28 May, Tuesday

    Time Temperature Precipitation Wind Pressure Humidity
    00:00 +27°C° 0 mm 1 mps 757 mmHg 50%
    01:00 +25°C° 0 mm 0 mps 757 mmHg 49%
    02:00 +26°C° 0 mm 1 mps 757 mmHg 49%
    03:00 +26°C° 0 mm 1 mps 757 mmHg 49%
    04:00 +26°C° 0 mm 1 mps 756 mmHg 49%
    05:00 +26°C° 0 mm 1 mps 757 mmHg 49%
    06:00 +25°C° 0 mm 1 mps 757 mmHg 49%
    07:00 +25°C° 0 mm 1 mps 757 mmHg 50%
    08:00 +27°C° 0 mm 1 mps 758 mmHg 45%
    09:00 +28°C° 0 mm 1 mps 758 mmHg 41%
    10:00 +30°C° 0 mm 2 mps 758 mmHg 37%
    11:00 +31°C° 0 mm 2 mps 757 mmHg 37%
    12:00 +31°C° 0 mm 3 mps 757 mmHg 37%
    13:00 +32°C° 0 mm 4 mps 756 mmHg 37%
    14:00 +32°C° 0 mm 4 mps 756 mmHg 40%
    15:00 +30°C° 0 mm 4 mps 756 mmHg 42%
    16:00 +29°C° 0 mm 4 mps 755 mmHg 45%
    17:00 +28°C° 0 mm 3 mps 756 mmHg 50%
    18:00 +27°C° 0 mm 2 mps 757 mmHg 55%
    19:00 +26°C° 0 mm 1 mps 758 mmHg 60%
    20:00 +26°C° 0 mm 1 mps 758 mmHg 61%
    21:00 +26°C° 0 mm 1 mps 758 mmHg 63%
    22:00 +25°C° 0 mm 1 mps 759 mmHg 64%
    23:00 +25°C° 0 mm 1 mps 759 mmHg 65%

    29 May, Wednesday

    Time Temperature Precipitation Wind Pressure Humidity
    00:00 +25°C° 0 mm 1 mps 759 mmHg 65%
    01:00 +25°C° 0 mm 1 mps 758 mmHg 66%
    02:00 +24°C° 0 mm 1 mps 758 mmHg 67%
    03:00 +24°C° 0 mm 1 mps 758 mmHg 68%
    04:00 +22°C° 0 mm 0 mps 758 mmHg 69%
    05:00 +24°C° 0 mm 1 mps 758 mmHg 68%
    06:00 +24°C° 0 mm 1 mps 759 mmHg 68%
    07:00 +24°C° 0 mm 1 mps 759 mmHg 67%
    08:00 +25°C° 0 mm 1 mps 759 mmHg 61%
    09:00 +27°C° 0 mm 1 mps 759 mmHg 54%
    10:00 +28°C° 0 mm 1 mps 759 mmHg 48%
    11:00 +29°C° 0 mm 2 mps 759 mmHg 46%
    12:00 +30°C° 0 mm 3 mps 758 mmHg 44%
    13:00 +32°C° 0 mm 4 mps 757 mmHg 43%
    14:00 +30°C° 0 mm 4 mps 757 mmHg 45%
    15:00 +29°C° 0 mm 4 mps 757 mmHg 48%
    16:00 +28°C° 0 mm 4 mps 757 mmHg 51%
    17:00 +27°C° 0 mm 4 mps 757 mmHg 54%
    18:00 +26°C° 0 mm 4 mps 758 mmHg 57%
    19:00 +25°C° 0 mm 4 mps 759 mmHg 60%
    20:00 +25°C° 0 mm 4 mps 759 mmHg 61%
    21:00 +23°C° 0 mm 4 mps 759 mmHg 62%
    22:00 +23°C° 0 mm 4 mps 760 mmHg 62%
    23:00 +24°C° 0 mm 3 mps 759 mmHg 61%
    Show more